| time (UTC) | temp F | wind direction | speed knots | gust knots | rain 1hr in | rain 24hr in | rain mn in | humidity % | barometer mb |
| 20260504175054 | 69 | 223 | 1.7 | 4.3 | 0.00 | 0.00 | 0.00 | 37 | 1011.0 |
| 20260504174555 | 69 | 199 | 1.7 | 2.6 | 0.00 | 0.00 | 0.00 | 38 | 1011.0 |
| 20260504174055 | 69 | 206 | 1.7 | 3.5 | 0.00 | 0.00 | 0.00 | 38 | 1011.0 |
| 20260504173554 | 69 | 249 | 1.7 | 2.6 | 0.00 | 0.00 | 0.00 | 38 | 1011.0 |
| 20260504173055 | 69 | 180 | 3.5 | 4.3 | 0.00 | 0.00 | 0.00 | 37 | 1011.0 |
| 20260504172558 | 69 | 153 | 2.6 | 4.3 | 0.00 | 0.00 | 0.00 | 39 | 1011.0 |
| 20260504172055 | 68 | 180 | 1.7 | 2.6 | 0.00 | 0.00 | 0.00 | 39 | 1011.0 |
| 20260504171554 | 68 | 202 | 2.6 | 3.5 | 0.00 | 0.00 | 0.00 | 39 | 1011.0 |
| 20260504171054 | 68 | 347 | 1.7 | 3.5 | 0.00 | 0.00 | 0.00 | 40 | 1011.0 |
| 20260504170554 | 67 | 329 | 0.9 | 2.6 | 0.00 | 0.00 | 0.00 | 40 | 1011.0 |
| 20260504151055 | 65 | 338 | 2.6 | 3.5 | 0.00 | 0.00 | 0.00 | 41 | 1013.0 |
| 20260504150555 | 65 | 223 | 1.7 | 3.5 | 0.00 | 0.00 | 0.00 | 40 | 1013.0 |
| 20260504141055 | 61 | 246 | 1.7 | 3.5 | 0.00 | 0.00 | 0.00 | 47 | 1013.0 |
| 20260504140557 | 61 | 188 | 2.6 | 5.2 | 0.00 | 0.00 | 0.00 | 48 | 1013.0 |
| 20260504130555 | 56 | 217 | 0.9 | 1.7 | 0.00 | 0.00 | 0.00 | 53 | 1014.0 |
| 20260504110553 | 40 | 237 | 1.7 | 1.7 | 0.00 | 0.00 | 0.00 | 78 | 1014.0 |
| 20260504100553 | 39 | 154 | 0.0 | 0.0 | 0.00 | 0.00 | 0.00 | 83 | 1014.0 |
| 20260504081553 | 41 | 271 | 1.7 | 2.6 | 0.00 | 0.00 | 0.00 | 80 | 1014.0 |
| 20260504081052 | 41 | 260 | 1.7 | 1.7 | 0.00 | 0.00 | 0.00 | 80 | 1014.0 |
| 20260504080552 | 41 | 256 | 0.9 | 1.7 | 0.00 | 0.00 | 0.00 | 80 | 1014.0 |
| 20260504050552 | 41 | 287 | 0.9 | 1.7 | 0.00 | 0.00 | 0.00 | 79 | 1013.0 |
| 20260504045552 | 41 | 241 | 0.9 | 0.9 | 0.00 | 0.00 | 0.00 | 80 | 1013.0 |
| 20260504045053 | 41 | 273 | 0.9 | 1.7 | 0.00 | 0.00 | 0.00 | 79 | 1013.0 |
| 20260504044553 | 41 | 235 | 0.0 | 0.9 | 0.00 | 0.00 | 0.00 | 79 | 1013.0 |
| 20260504044052 | 41 | 271 | 0.9 | 0.9 | 0.00 | 0.00 | 0.00 | 79 | 1013.0 |
| 20260504043553 | 41 | 175 | 0.0 | 0.9 | 0.00 | 0.00 | 0.00 | 79 | 1013.0 |
| 20260504043052 | 41 | 213 | 0.0 | 0.0 | 0.00 | 0.00 | 0.00 | 78 | 1013.0 |
| 20260504042553 | 42 | 234 | 0.0 | 0.9 | 0.00 | 0.00 | 0.00 | 78 | 1013.0 |
| 20260504042052 | 42 | 234 | 0.9 | 0.9 | 0.00 | 0.00 | 0.00 | 78 | 1013.0 |
| 20260504041554 | 42 | 274 | 1.7 | 1.7 | 0.00 | 0.00 | 0.00 | 78 | 1013.0 |
| 20260504041053 | 42 | 268 | 0.0 | 0.9 | 0.00 | 0.00 | 0.00 | 77 | 1013.0 |
| 20260504040553 | 42 | 231 | 0.9 | 0.9 | 0.00 | 0.00 | 0.00 | 76 | 1013.0 |
| 20260504040052 | 42 | 196 | 0.9 | 0.9 | 0.00 | 0.00 | 0.00 | 76 | 1013.0 |
| 20260504035552 | 42 | 238 | 0.9 | 0.9 | 0.00 | 0.00 | 0.00 | 76 | 1013.0 |
| 20260504035054 | 42 | 264 | 0.9 | 1.7 | 0.00 | 0.00 | 0.00 | 76 | 1013.0 |
| 20260504034552 | 42 | 256 | 0.9 | 1.7 | 0.00 | 0.00 | 0.00 | 76 | 1013.0 |
| 20260504034053 | 42 | 234 | 0.9 | 0.9 | 0.00 | 0.00 | 0.00 | 76 | 1013.0 |
| 20260504033552 | 42 | 242 | 0.9 | 1.7 | 0.00 | 0.00 | 0.00 | 75 | 1013.0 |
| 20260504033053 | 42 | 246 | 1.7 | 1.7 | 0.00 | 0.00 | 0.00 | 75 | 1013.0 |
| 20260504032552 | 43 | 280 | 0.0 | 0.0 | 0.00 | 0.00 | 0.00 | 75 | 1013.0 |
| 20260504032053 | 43 | 220 | 0.9 | 1.7 | 0.00 | 0.00 | 0.00 | 75 | 1013.0 |
| 20260504031553 | 43 | 265 | 1.7 | 1.7 | 0.00 | 0.00 | 0.00 | 74 | 1013.0 |
| 20260504031053 | 43 | 269 | 0.9 | 0.9 | 0.00 | 0.00 | 0.00 | 74 | 1013.0 |
| 20260504030552 | 43 | 241 | 0.9 | 1.7 | 0.00 | 0.00 | 0.00 | 74 | 1013.0 |
| 20260504030053 | 43 | 249 | 0.9 | 1.7 | 0.00 | 0.00 | 0.00 | 73 | 1013.0 |
| 20260504025553 | 43 | 224 | 0.0 | 0.9 | 0.00 | 0.00 | 0.00 | 73 | 1013.0 |
| 20260504025053 | 43 | 246 | 0.9 | 1.7 | 0.00 | 0.00 | 0.00 | 72 | 1013.0 |
| 20260504024554 | 44 | 259 | 0.9 | 1.7 | 0.00 | 0.00 | 0.00 | 72 | 1013.0 |
| 20260504024053 | 44 | 260 | 0.9 | 1.7 | 0.00 | 0.00 | 0.00 | 71 | 1013.0 |
| 20260504023552 | 44 | 234 | 0.0 | 0.9 | 0.00 | 0.00 | 0.00 | 70 | 1013.0 |
| 20260504023053 | 44 | 240 | 0.9 | 1.7 | 0.00 | 0.00 | 0.00 | 70 | 1013.0 |
| 20260504022553 | 44 | 221 | 0.9 | 1.7 | 0.00 | 0.00 | 0.00 | 70 | 1013.0 |
| 20260504022052 | 44 | 266 | 0.9 | 1.7 | 0.00 | 0.00 | 0.00 | 70 | 1013.0 |
| 20260504021552 | 45 | 256 | 0.9 | 1.7 | 0.00 | 0.00 | 0.00 | 69 | 1013.0 |
| 20260504021052 | 45 | 261 | 1.7 | 1.7 | 0.00 | 0.00 | 0.00 | 69 | 1013.0 |
| 20260504020553 | 45 | 263 | 1.7 | 1.7 | 0.00 | 0.00 | 0.00 | 69 | 1013.0 |
| 20260504020052 | 45 | 252 | 0.9 | 0.9 | 0.00 | 0.00 | 0.00 | 68 | 1013.0 |
| 20260504015552 | 45 | 258 | 0.9 | 1.7 | 0.00 | 0.00 | 0.00 | 68 | 1013.0 |
| 20260504015052 | 46 | 249 | 0.9 | 0.9 | 0.00 | 0.00 | 0.00 | 67 | 1013.0 |
| 20260504014552 | 46 | 262 | 0.9 | 0.9 | 0.00 | 0.00 | 0.00 | 67 | 1013.0 |
| 20260504014052 | 46 | 241 | 0.0 | 0.9 | 0.00 | 0.00 | 0.00 | 66 | 1013.0 |
| 20260504013552 | 46 | 276 | 0.9 | 1.7 | 0.00 | 0.00 | 0.00 | 66 | 1013.0 |
| 20260504013052 | 47 | 265 | 0.9 | 1.7 | 0.00 | 0.00 | 0.00 | 65 | 1012.0 |
| 20260504012553 | 47 | 254 | 0.9 | 1.7 | 0.00 | 0.00 | 0.00 | 64 | 1012.0 |
| 20260504012055 | 47 | 270 | 0.9 | 1.7 | 0.00 | 0.00 | 0.00 | 63 | 1012.0 |
| 20260504011553 | 47 | 262 | 0.9 | 1.7 | 0.00 | 0.00 | 0.00 | 62 | 1012.0 |
| 20260504011052 | 48 | 253 | 0.9 | 0.9 | 0.00 | 0.00 | 0.00 | 62 | 1012.0 |
| 20260504010553 | 48 | 240 | 0.9 | 1.7 | 0.00 | 0.00 | 0.00 | 61 | 1012.0 |
| 20260504010052 | 49 | 171 | 0.0 | 0.9 | 0.00 | 0.00 | 0.00 | 60 | 1012.0 |
| 20260504005552 | 49 | 259 | 0.9 | 1.7 | 0.00 | 0.00 | 0.00 | 58 | 1012.0 |
| 20260504005053 | 49 | 252 | 0.9 | 1.7 | 0.00 | 0.00 | 0.00 | 55 | 1012.0 |
| 20260504004553 | 50 | 244 | 0.9 | 0.9 | 0.00 | 0.00 | 0.00 | 55 | 1012.0 |
| 20260504004052 | 51 | 269 | 0.0 | 0.9 | 0.00 | 0.00 | 0.00 | 55 | 1012.0 |
| 20260504003553 | 51 | 257 | 0.9 | 1.7 | 0.00 | 0.00 | 0.00 | 54 | 1012.0 |
| 20260504003053 | 52 | 261 | 0.9 | 1.7 | 0.00 | 0.00 | 0.00 | 52 | 1012.0 |
| 20260504002552 | 53 | 255 | 0.9 | 1.7 | 0.00 | 0.00 | 0.00 | 48 | 1012.0 |
| 20260504002053 | 53 | 242 | 0.0 | 0.0 | 0.00 | 0.00 | 0.00 | 45 | 1012.0 |
| 20260504001552 | 54 | 183 | 0.0 | 0.9 | 0.00 | 0.00 | 0.00 | 44 | 1012.0 |
| 20260504001053 | 55 | 282 | 0.0 | 0.9 | 0.00 | 0.00 | 0.00 | 43 | 1011.0 |
| 20260504000552 | 55 | 0 | 0.0 | 0.0 | 0.00 | 0.00 | 0.00 | 40 | 1011.0 |
| 20260504000053 | 56 | 266 | 0.0 | 0.9 | 0.00 | 0.00 | 0.00 | 39 | 1011.0 |
| 20260503235552 | 56 | 0 | 0.0 | 0.0 | 0.00 | 0.00 | 0.00 | 37 | 1011.0 |
| 20260503235052 | 57 | 0 | 0.0 | 0.0 | 0.00 | 0.00 | 0.00 | 37 | 1011.0 |
| 20260503234553 | 57 | 242 | 1.7 | 3.5 | 0.00 | 0.00 | 0.00 | 35 | 1011.0 |
| 20260503234052 | 57 | 196 | 0.9 | 2.6 | 0.00 | 0.00 | 0.00 | 36 | 1011.0 |
| 20260503233553 | 58 | 263 | 0.0 | 1.7 | 0.00 | 0.00 | 0.00 | 37 | 1011.0 |
| 20260503233053 | 58 | 220 | 0.0 | 1.7 | 0.00 | 0.00 | 0.00 | 35 | 1011.0 |
| 20260503232553 | 58 | 103 | 0.0 | 0.9 | 0.00 | 0.00 | 0.00 | 34 | 1011.0 |
| 20260503232052 | 58 | 200 | 0.9 | 1.7 | 0.00 | 0.00 | 0.00 | 35 | 1011.0 |
| 20260503231552 | 58 | 0 | 0.0 | 0.0 | 0.00 | 0.00 | 0.00 | 33 | 1011.0 |
| 20260503231052 | 58 | 85 | 0.0 | 0.9 | 0.00 | 0.00 | 0.00 | 34 | 1011.0 |
| 20260503230553 | 58 | 224 | 0.0 | 0.9 | 0.00 | 0.00 | 0.00 | 35 | 1011.0 |
| 20260503230053 | 58 | 187 | 0.0 | 0.9 | 0.00 | 0.00 | 0.00 | 35 | 1011.0 |
| 20260503225552 | 59 | 258 | 0.0 | 0.9 | 0.00 | 0.00 | 0.00 | 35 | 1011.0 |
| 20260503225052 | 59 | 203 | 0.9 | 1.7 | 0.00 | 0.00 | 0.00 | 32 | 1010.0 |
| 20260503224553 | 59 | 28 | 1.7 | 3.5 | 0.00 | 0.00 | 0.00 | 32 | 1011.0 |
| 20260503224052 | 59 | 206 | 1.7 | 3.5 | 0.00 | 0.00 | 0.00 | 31 | 1011.0 |
| 20260503223552 | 59 | 184 | 0.9 | 1.7 | 0.00 | 0.00 | 0.00 | 32 | 1011.0 |
| 20260503223052 | 59 | 170 | 0.0 | 1.7 | 0.00 | 0.00 | 0.00 | 32 | 1010.0 |
| 20260503222553 | 59 | 202 | 2.6 | 5.2 | 0.00 | 0.00 | 0.00 | 31 | 1010.0 |
| 20260503222053 | 60 | 200 | 0.9 | 1.7 | 0.00 | 0.00 | 0.00 | 32 | 1010.0 |
| 20260503221552 | 60 | 125 | 0.9 | 2.6 | 0.00 | 0.00 | 0.00 | 30 | 1010.0 |
| 20260503221052 | 60 | 69 | 1.7 | 3.5 | 0.00 | 0.00 | 0.00 | 30 | 1010.0 |
| 20260503220553 | 61 | 42 | 2.6 | 7.0 | 0.00 | 0.00 | 0.00 | 30 | 1010.0 |
| 20260503220052 | 61 | 161 | 0.9 | 1.7 | 0.00 | 0.00 | 0.00 | 30 | 1010.0 |
| 20260503215552 | 61 | 216 | 1.7 | 2.6 | 0.00 | 0.00 | 0.00 | 30 | 1010.0 |
| 20260503215052 | 61 | 228 | 1.7 | 5.2 | 0.00 | 0.00 | 0.00 | 31 | 1010.0 |
| 20260503214552 | 61 | 198 | 2.6 | 5.2 | 0.00 | 0.00 | 0.00 | 30 | 1010.0 |
| 20260503214052 | 61 | 267 | 0.0 | 0.9 | 0.00 | 0.00 | 0.00 | 30 | 1010.0 |
| 20260503213553 | 61 | 20 | 0.9 | 2.6 | 0.00 | 0.00 | 0.00 | 30 | 1010.0 |
| 20260503213052 | 62 | 276 | 0.9 | 1.7 | 0.00 | 0.00 | 0.00 | 30 | 1010.0 |
| 20260503212552 | 61 | 311 | 0.9 | 3.5 | 0.00 | 0.00 | 0.00 | 30 | 1010.0 |
| 20260503212052 | 61 | 255 | 1.7 | 2.6 | 0.00 | 0.00 | 0.00 | 32 | 1010.0 |
| 20260503211553 | 60 | 83 | 1.7 | 3.5 | 0.00 | 0.00 | 0.00 | 31 | 1010.0 |
| 20260503211052 | 61 | 136 | 1.7 | 3.5 | 0.00 | 0.00 | 0.00 | 31 | 1010.0 |
| 20260503210552 | 61 | 197 | 1.7 | 4.3 | 0.00 | 0.00 | 0.00 | 31 | 1010.0 |
| 20260503210053 | 61 | 249 | 2.6 | 3.5 | 0.00 | 0.00 | 0.00 | 30 | 1010.0 |
| 20260503205552 | 61 | 207 | 1.7 | 3.5 | 0.00 | 0.00 | 0.00 | 32 | 1010.0 |
| 20260503205052 | 60 | 223 | 1.7 | 3.5 | 0.00 | 0.00 | 0.00 | 33 | 1010.0 |
| 20260503204552 | 60 | 213 | 2.6 | 7.0 | 0.00 | 0.00 | 0.00 | 30 | 1010.0 |
| 20260503204052 | 59 | 193 | 3.5 | 7.8 | 0.00 | 0.00 | 0.00 | 31 | 1010.0 |
| 20260503203553 | 59 | 14 | 1.7 | 4.3 | 0.00 | 0.00 | 0.00 | 32 | 1010.0 |
| 20260503203053 | 59 | 340 | 1.7 | 3.5 | 0.00 | 0.00 | 0.00 | 31 | 1011.0 |
| 20260503202552 | 59 | 296 | 2.6 | 5.2 | 0.00 | 0.00 | 0.00 | 32 | 1010.0 |
| 20260503202052 | 59 | 207 | 1.7 | 5.2 | 0.00 | 0.00 | 0.00 | 31 | 1010.0 |
| 20260503201552 | 60 | 8 | 3.5 | 5.2 | 0.00 | 0.00 | 0.00 | 31 | 1011.0 |
| 20260503201054 | 59 | 239 | 1.7 | 3.5 | 0.00 | 0.00 | 0.00 | 31 | 1010.0 |
| 20260503200552 | 59 | 220 | 2.6 | 5.2 | 0.00 | 0.00 | 0.00 | 30 | 1011.0 |
| 20260503200052 | 59 | 126 | 0.0 | 1.7 | 0.00 | 0.00 | 0.00 | 33 | 1011.0 |
| 20260503195552 | 59 | 237 | 1.7 | 2.6 | 0.00 | 0.00 | 0.00 | 32 | 1011.0 |
| 20260503195053 | 59 | 80 | 1.7 | 4.3 | 0.00 | 0.00 | 0.00 | 32 | 1011.0 |
| 20260503194552 | 59 | 87 | 0.9 | 1.7 | 0.00 | 0.00 | 0.00 | 33 | 1011.0 |
| 20260503194054 | 59 | 262 | 2.6 | 5.2 | 0.00 | 0.00 | 0.00 | 32 | 1011.0 |
| 20260503193552 | 58 | 6 | 0.9 | 1.7 | 0.00 | 0.00 | 0.00 | 36 | 1011.0 |
| 20260503193052 | 58 | 229 | 4.3 | 9.6 | 0.00 | 0.00 | 0.00 | 33 | 1011.0 |
| 20260503192552 | 58 | 190 | 3.5 | 6.1 | 0.00 | 0.00 | 0.00 | 33 | 1011.0 |
| 20260503192052 | 58 | 87 | 1.7 | 4.3 | 0.00 | 0.00 | 0.00 | 34 | 1011.0 |
| 20260503191555 | 59 | 0 | 0.9 | 2.6 | 0.00 | 0.00 | 0.00 | 34 | 1011.0 |
| 20260503191052 | 58 | 190 | 1.7 | 4.3 | 0.00 | 0.00 | 0.00 | 34 | 1011.0 |
| 20260503190552 | 58 | 307 | 0.9 | 1.7 | 0.00 | 0.00 | 0.00 | 35 | 1011.0 |
| 20260503190052 | 57 | 203 | 1.7 | 3.5 | 0.00 | 0.00 | 0.00 | 34 | 1011.0 |
| 20260503185553 | 57 | 59 | 0.9 | 2.6 | 0.00 | 0.00 | 0.00 | 39 | 1011.0 |
| 20260503185052 | 56 | 257 | 1.7 | 5.2 | 0.00 | 0.00 | 0.00 | 37 | 1011.0 |
| 20260503184553 | 56 | 41 | 2.6 | 5.2 | 0.00 | 0.00 | 0.00 | 36 | 1011.0 |
| 20260503184052 | 56 | 0 | 1.7 | 2.6 | 0.00 | 0.00 | 0.00 | 38 | 1011.0 |
| 20260503183553 | 56 | 119 | 1.7 | 3.5 | 0.00 | 0.00 | 0.00 | 35 | 1011.0 |
| 20260503183052 | 56 | 66 | 3.5 | 6.1 | 0.00 | 0.00 | 0.00 | 35 | 1011.0 |
| 20260503182552 | 55 | 219 | 3.5 | 7.8 | 0.00 | 0.00 | 0.00 | 36 | 1011.0 |
| 20260503182052 | 55 | 285 | 2.6 | 4.3 | 0.00 | 0.00 | 0.00 | 37 | 1011.0 |
| 20260503181553 | 55 | 269 | 1.7 | 3.5 | 0.00 | 0.00 | 0.00 | 36 | 1011.0 |
| 20260503181052 | 55 | 353 | 1.7 | 4.3 | 0.00 | 0.00 | 0.00 | 37 | 1011.0 |
| 20260503180552 | 55 | 238 | 2.6 | 6.1 | 0.00 | 0.00 | 0.00 | 38 | 1011.0 |
| 20260503180052 | 54 | 354 | 3.5 | 7.0 | 0.00 | 0.00 | 0.00 | 39 | 1012.0 |
| 20260503175552 | 54 | 163 | 1.7 | 4.3 | 0.00 | 0.00 | 0.00 | 38 | 1011.0 |